Date,TemperatureHighF,TemperatureAvgF,TemperatureLowF,DewpointHighF,DewpointAvgF,DewpointLowF,HumidityHigh,HumidityAvg,HumidityLow,PressureMaxIn,PressureMinIn,WindSpeedMaxMPH,WindSpeedAvgMPH,GustSpeedMaxMPH,PrecipitationSumIn
2013-2-8,51,37,27,23,17,13,60,45,27,30.32,30.14,15,3,15,0.24
2013-2-9,27,27,27,15,15,15,60,60,60,30.32,30.32,0,0,0,0.00
2013-2-11,35,34,34,20,18,17,55,52,49,29.70,29.64,34,16,34,0.04
2013-2-12,39,33,30,18,16,14,57,49,39,30.05,29.93,14,4,14,0.08
2013-2-13,57,36,27,22,18,14,61,49,26,29.93,29.70,19,3,19,0.00
2013-2-14,41,37,33,30,25,18,73,61,49,29.91,29.67,28,7,28,0.00
2013-2-15,46,32,25,21,14,6,63,47,28,30.14,29.91,14,4,14,0.00
2013-2-16,34,23,16,17,8,-1,70,53,30,30.11,30.02,15,4,15,0.00
2013-2-17,49,25,12,14,6,-1,64,45,22,30.20,30.08,13,2,13,0.00
2013-2-18,55,39,25,40,21,6,78,49,35,30.11,29.49,22,6,22,0.08
2013-2-19,46,24,16,42,14,3,88,66,49,30.02,29.43,28,11,32,0.04
2013-2-20,28,22,16,12,9,6,74,56,43,30.29,30.02,16,6,16,0.00
2013-2-21,38,29,24,16,12,9,55,48,40,30.35,30.11,20,5,20,0.00
2013-2-22,37,31,24,32,21,9,86,66,53,30.11,29.82,19,7,20,0.00
2013-2-23,33,29,26,19,15,10,68,56,40,29.93,29.88,19,8,19,0.00
2013-2-24,63,33,25,24,16,13,71,52,21,30.14,29.91,15,5,15,0.08
2013-2-25,66,38,24,26,18,10,66,46,20,30.20,30.02,12,2,12,0.00
2013-2-26,39,36,33,30,23,16,73,58,42,30.02,29.46,21,7,21,0.39
2013-2-27,39,37,36,33,31,29,86,79,72,29.58,29.43,11,4,11,0.31
2013-2-28,45,39,36,33,27,23,84,62,44,29.96,29.58,13,5,13,0.04
2013-3-1,46,37,31,24,18,11,62,46,32,30.11,29.96,13,6,13,0.00
2013-3-2,50,34,28,17,12,8,50,40,26,30.11,30.05,12,4,12,0.00
2013-3-3,58,32,22,16,10,4,56,41,19,30.08,30.02,14,4,14,0.00
2013-3-4,48,33,21,16,12,8,60,43,27,30.14,30.02,10,3,10,0.00
2013-3-5,39,35,31,25,18,13,68,49,40,30.05,29.76,19,6,19,0.00
2013-3-6,51,39,31,23,20,17,65,49,30,30.23,29.82,18,5,18,0.08
2013-3-7,50,39,31,26,20,13,66,48,27,30.38,30.20,10,3,11,0.00
2013-3-8,67,38,24,24,17,12,65,46,17,30.47,30.38,10,2,10,0.00
2013-3-9,50,39,31,29,22,17,60,51,35,30.38,29.96,16,4,16,0.00
2013-3-10,63,51,40,38,33,27,67,51,36,29.96,29.70,13,5,14,0.04
2013-3-11,55,48,36,50,40,27,89,74,40,29.73,29.52,25,8,25,0.16
2013-3-12,42,34,32,30,25,15,81,69,39,29.91,29.73,22,9,22,0.00
2013-3-13,46,31,26,26,15,6,80,53,27,30.26,29.91,18,6,19,0.00
2013-3-14,58,34,23,20,12,7,56,42,22,30.29,30.11,15,5,16,0.00
2013-3-15,51,41,33,35,28,19,80,63,39,30.11,29.79,14,5,14,0.04
2013-3-16,43,38,30,35,26,15,75,61,44,30.05,29.67,14,5,14,0.00
2013-3-17,56,37,30,20,15,10,54,41,23,30.20,30.05,16,6,16,0.00
2013-3-18,40,35,30,33,24,13,84,66,49,30.08,29.55,21,6,21,0.04
2013-3-19,46,27,21,18,10,6,68,48,27,29.99,29.70,31,11,31,0.00
2013-3-20,29,25,20,10,6,2,58,44,36,29.99,29.93,20,6,20,0.00
2013-3-21,39,26,18,16,11,7,73,54,35,29.99,29.91,17,6,17,0.00
2013-3-22,59,36,25,19,13,9,57,41,19,30.05,29.96,16,4,16,0.00
2013-3-23,66,38,26,23,16,13,61,43,18,30.11,29.99,12,3,12,0.00
2013-3-24,44,36,31,21,18,15,56,47,35,29.99,29.61,23,7,23,0.00
2013-3-25,43,38,33,24,21,16,66,50,39,29.96,29.58,20,7,20,0.00
2013-3-26,46,39,35,25,22,17,60,50,35,30.17,29.96,18,5,18,0.00
2013-3-27,61,41,33,29,20,10,73,45,19,30.26,30.17,20,5,20,0.00
2013-3-28,68,43,30,23,17,12,54,36,17,30.29,30.26,17,3,17,0.00
2013-3-29,76,44,29,25,17,11,58,37,14,30.29,30.20,13,2,14,0.00
2013-3-30,60,43,27,26,19,12,57,39,24,30.23,29.91,18,3,18,0.00
2013-3-31,64,50,40,44,29,18,87,47,20,29.91,29.67,24,6,24,0.00
2013-4-1,40,38,35,26,21,15,60,52,43,29.88,29.79,15,6,15,0.00
2013-4-23,66,55,48,55,48,40,87,78,40,29.91,29.85,21,6,21,0.39
2013-4-24,62,44,40,40,28,15,78,56,21,30.14,29.82,18,5,18,0.16
2013-4-25,40,38,37,32,27,23,73,63,51,30.14,30.08,17,6,17,0.00
2013-5-1,92,82,69,51,44,40,52,29,18,30.17,30.14,15,4,15,0.28
2013-5-2,87,73,62,53,47,38,69,44,20,30.20,30.08,15,4,15,0.00
2013-5-3,83,71,60,52,45,33,67,43,21,30.08,29.96,20,5,20,0.00
2013-5-4,80,67,60,41,34,27,42,30,17,30.05,29.99,16,6,16,0.00
2013-5-5,82,66,53,39,34,28,54,32,17,30.05,29.96,16,4,16,0.00
2013-5-6,92,70,58,42,34,28,43,28,12,30.02,29.93,12,4,12,0.00
2013-5-7,85,69,57,46,42,37,65,39,20,30.05,29.96,15,2,15,0.00
2013-5-8,65,60,58,49,47,44,71,61,47,30.02,29.99,0,0,0,0.00
2013-6-3,80,70,56,39,35,30,51,29,20,30.11,30.02,11,4,11,2.56
2013-6-4,86,66,50,46,40,33,74,43,18,30.20,30.11,11,3,11,0.00
2013-6-5,87,70,58,43,38,32,51,32,18,30.14,29.93,13,4,13,0.00
2013-6-6,83,69,61,48,42,35,53,39,21,29.96,29.85,13,5,13,0.00
2013-6-7,82,67,56,47,44,38,69,47,23,29.93,29.88,14,4,14,0.00
2013-6-8,59,56,54,51,47,46,76,72,62,29.96,29.91,4,0,4,0.00
2013-10-7,59,59,59,44,44,44,57,57,57,29.93,29.93,10,3,12,0.00
2013-10-8,94,71,55,42,39,33,57,34,14,30.23,30.20,12,4,14,0.00
2013-10-9,98,62,46,50,38,26,75,48,10,30.29,30.17,11,2,12,0.00
2013-10-10,99,62,47,48,40,32,76,51,11,30.20,30.11,9,1,10,0.00
2013-10-11,98,63,46,51,40,30,76,50,13,30.14,30.02,9,2,10,0.00
2013-10-12,84,66,52,61,46,36,80,54,20,30.11,30.02,14,2,18,0.00
2013-10-13,87,61,47,60,42,28,83,56,16,30.38,30.11,13,2,13,0.00
2013-10-14,94,58,45,45,37,28,76,51,12,30.41,30.23,11,2,12,0.00
2013-10-15,66,58,47,63,49,36,90,72,58,30.23,29.85,13,4,15,0.00
2013-10-16,64,53,48,61,44,39,89,72,66,29.93,29.85,18,7,19,0.00
2013-10-17,55,51,46,47,44,40,85,77,61,29.93,29.79,16,6,20,0.00
2013-10-18,65,50,42,41,37,33,83,65,34,29.96,29.88,19,4,20,0.00
2013-10-19,60,48,44,43,34,20,87,63,24,29.93,29.79,19,6,24,0.00
2013-10-20,68,52,41,37,34,28,76,52,27,29.91,29.82,18,6,22,0.00
2013-10-21,57,51,42,46,35,20,76,55,30,29.93,29.82,20,7,21,0.00
2013-10-22,55,41,32,32,24,18,75,53,28,29.96,29.91,19,6,19,0.00
2013-10-23,54,41,35,34,28,17,78,62,31,29.99,29.85,15,4,15,0.00
2013-10-24,50,40,36,38,32,26,84,73,48,30.23,29.96,12,4,17,0.00
2013-10-25,65,43,37,36,27,16,85,58,21,30.35,30.11,19,5,21,0.00
2013-10-26,53,45,40,32,24,19,58,45,37,30.11,29.82,25,8,28,0.00
2013-10-27,67,46,36,32,26,19,74,49,20,30.05,29.99,15,4,19,0.00
2013-10-28,77,49,34,33,28,22,69,48,18,30.35,30.02,12,2,13,0.00
2013-10-29,62,47,36,34,30,27,70,54,31,30.38,30.20,11,2,11,0.00
2013-10-30,66,53,41,57,42,32,86,67,43,30.20,29.91,10,2,11,0.00
2013-10-31,67,63,55,64,60,50,92,89,83,29.91,29.23,20,8,26,0.00
2013-11-1,55,48,46,50,40,31,86,72,51,29.70,29.28,22,8,29,0.00
2013-11-2,62,48,45,45,39,29,87,72,34,30.08,29.70,14,4,14,0.00
2013-11-3,59,46,40,40,32,25,77,59,30,30.35,30.08,10,4,12,0.00
2013-11-4,55,46,39,36,30,26,71,55,35,30.38,30.20,15,6,19,0.00
2013-11-5,57,53,49,45,40,36,69,61,51,30.32,30.11,12,4,13,0.00
2013-11-6,58,53,43,55,45,35,91,75,46,30.11,29.82,22,7,26,0.00
2013-11-7,51,41,35,37,27,17,77,59,28,30.20,30.05,15,5,20,0.00
2013-11-8,60,43,35,32,27,20,84,56,25,30.29,30.11,14,4,14,0.00
2013-11-9,66,50,43,34,28,22,55,43,26,30.11,29.85,26,10,28,0.00
2013-11-10,66,44,37,28,23,18,60,44,23,30.29,29.99,20,6,21,0.00
2013-11-11,46,40,31,37,26,13,75,57,43,30.35,30.05,14,6,19,0.00
2013-11-12,46,32,25,20,14,8,61,49,28,30.58,30.35,13,5,18,0.00
2013-11-13,39,26,22,15,12,6,70,57,29,30.53,30.41,21,7,21,0.00
2013-11-18,40,38,36,25,21,18,56,50,45,30.17,29.85,17,7,24,0.00
2013-11-19,66,42,33,24,19,15,55,42,17,30.35,30.17,15,3,15,0.00
2013-11-20,61,39,30,27,21,16,63,49,24,30.35,30.14,11,4,14,0.00
2013-11-21,50,47,43,45,38,27,83,71,53,30.23,30.14,12,3,12,0.00
2013-11-22,56,44,30,46,32,18,89,66,32,30.41,30.14,15,4,16,0.00
2013-11-23,37,27,20,24,15,5,77,59,34,30.55,30.32,16,6,21,0.00
2013-11-24,46,24,19,13,6,-1,63,48,22,30.61,30.41,13,4,15,0.00
2013-11-25,31,26,18,24,11,0,80,53,41,30.41,30.08,20,8,22,0.00
2013-11-26,35,32,28,25,20,9,74,63,43,30.08,29.93,14,6,15,0.00
2013-11-27,45,31,26,16,11,7,57,45,27,30.20,29.99,12,5,14,0.00
2013-11-28,33,28,24,17,10,5,69,47,39,30.41,30.20,15,4,15,0.00
2013-11-29,61,37,31,20,15,10,53,42,19,30.61,30.41,12,3,12,0.00
2013-11-30,61,39,31,24,19,14,55,45,24,30.47,30.08,16,5,20,0.00
2013-12-1,67,41,30,32,22,17,62,49,22,30.08,29.99,11,2,12,0.00
2013-12-2,55,37,29,31,23,19,70,58,28,29.99,29.85,10,2,11,0.00
2013-12-3,49,42,36,44,35,24,84,76,60,29.85,29.76,10,4,12,0.00
2013-12-4,61,52,45,56,48,40,89,85,79,29.82,29.58,16,4,20,0.00
2013-12-5,60,38,30,55,25,13,82,58,44,30.17,29.61,24,8,24,0.00
2013-12-6,31,29,25,15,11,6,53,47,43,30.41,30.14,12,5,13,0.00
2013-12-7,32,23,18,12,6,2,60,47,33,30.58,30.41,12,4,13,0.00
2013-12-8,31,25,18,22,11,3,74,56,41,30.53,29.93,15,4,15,0.00
2013-12-9,30,24,16,23,13,1,78,63,46,30.14,29.88,26,10,26,0.00
2013-12-10,27,16,4,6,0,-8,55,50,40,30.23,29.96,23,9,30,0.00
2013-12-11,39,20,14,14,6,-2,72,55,30,30.44,30.23,15,7,21,0.00
2013-12-12,30,13,0,4,-4,-14,59,47,31,30.47,30.20,20,8,23,0.00
2013-12-13,50,27,14,18,9,2,60,48,28,30.20,30.11,12,5,13,0.00
2013-12-14,31,27,22,21,15,11,70,60,52,30.14,29.85,12,6,15,0.00
2013-12-15,26,20,12,20,10,2,78,66,60,30.05,29.85,19,8,23,0.00
2013-12-16,35,18,6,10,4,-4,62,53,32,30.14,29.99,10,3,11,0.00
2013-12-17,29,24,19,22,16,8,80,72,58,29.99,29.91,17,7,19,0.00
2013-12-18,50,28,21,16,11,5,68,50,21,30.14,29.88,15,7,15,0.00
2013-12-19,45,39,29,32,27,11,75,62,47,29.96,29.85,12,4,13,0.00
2013-12-20,47,42,38,43,37,31,90,81,70,29.85,29.70,8,1,9,0.00
2013-12-21,40,38,36,38,33,30,91,81,74,29.82,29.58,14,4,16,0.00
2013-12-22,38,36,33,34,30,28,85,79,76,29.99,29.49,20,6,22,0.00
2013-12-23,33,26,11,28,14,-2,79,62,48,30.35,29.99,19,8,19,0.00
2013-12-24,42,15,5,12,0,-8,57,50,26,30.50,30.35,17,6,18,0.00
2013-12-25,28,23,18,22,12,5,81,62,53,30.41,30.05,16,7,16,0.00
2013-12-26,33,28,23,24,15,6,83,61,37,30.26,30.02,20,7,26,0.00
2013-12-27,56,38,32,27,23,20,68,56,27,30.29,30.08,16,6,20,0.00
2013-12-28,63,42,35,28,26,23,72,55,25,30.11,29.88,18,8,19,0.00
2013-12-29,43,34,24,30,21,10,76,59,49,30.05,29.73,22,7,23,0.00
2013-12-30,28,23,14,12,6,-1,63,48,35,30.23,30.05,12,5,14,0.00
2013-12-31,22,16,14,10,4,-2,72,59,37,30.29,30.08,20,7,21,0.00
2014-1-1,29,22,16,10,7,3,67,52,41,30.29,30.14,12,6,15,0.00
2014-1-2,34,18,3,7,0,-17,60,46,30,30.29,30.05,17,6,20,0.00